Time,TemperatureF,DewpointF,PressureIn,WindDirection,WindDirectionDegrees,WindSpeedMPH,WindSpeedGustMPH,Humidity,HourlyPrecipIn,Conditions,Clouds,dailyrainin,SolarRadiationWatts/m^2,SoftwareType,DateUTC
2013-07-23 00:01:00,67.2,57.1,29.77,WNW,298,0.0,3.0,70,0.00,,---,0.00,0.00,VWS V14.01,2013-07-23 05:01:00,
2013-07-23 00:11:00,67.1,57.0,29.78,WNW,298,1.0,4.0,70,0.00,,---,0.00,0.00,VWS V14.01,2013-07-23 05:11:00,
2013-07-23 00:16:00,67.1,56.6,29.78,WNW,293,3.0,5.0,69,0.00,,---,0.00,0.00,VWS V14.01,2013-07-23 05:16:00,
2013-07-23 00:21:00,67.1,56.6,29.78,NW,304,0.0,5.0,69,0.00,,---,0.00,0.00,VWS V14.01,2013-07-23 05:21:00,
2013-07-23 00:26:00,67.2,56.7,29.77,NW,321,0.0,6.0,69,0.00,,---,0.00,0.00,VWS V14.01,2013-07-23 05:26:00,
2013-07-23 00:31:00,67.4,56.9,29.77,NW,314,1.0,4.0,69,0.00,,---,0.00,0.00,VWS V14.01,2013-07-23 05:31:00,
2013-07-23 00:36:00,67.4,56.5,29.77,NNW,328,3.0,5.0,68,0.00,,---,0.00,0.00,VWS V14.01,2013-07-23 05:36:00,
2013-07-23 00:41:00,67.5,56.2,29.78,NNW,340,0.0,9.0,67,0.00,,---,0.00,0.00,VWS V14.01,2013-07-23 05:41:00,
2013-07-23 00:46:00,67.6,56.3,29.78,NW,308,3.0,7.0,67,0.00,,---,0.00,0.00,VWS V14.01,2013-07-23 05:46:00,
2013-07-23 00:51:00,67.6,56.3,29.78,NW,307,1.0,6.0,67,0.00,,---,0.00,0.00,VWS V14.01,2013-07-23 05:51:00,
2013-07-23 00:56:00,67.5,56.2,29.78,NW,311,1.0,5.0,67,0.00,,---,0.00,0.00,VWS V14.01,2013-07-23 05:56:00,
2013-07-23 01:01:00,67.4,56.1,29.78,WNW,301,0.0,7.0,67,0.00,,---,0.00,0.00,VWS V14.01,2013-07-23 06:01:00,
2013-07-23 01:06:00,67.2,56.3,29.78,WNW,299,2.0,4.0,68,0.00,,---,0.00,0.00,VWS V14.01,2013-07-23 06:06:00,
2013-07-23 01:11:00,67.0,56.1,29.78,NW,304,3.0,4.0,68,0.00,,---,0.00,0.00,VWS V14.01,2013-07-23 06:11:00,
2013-07-23 01:16:00,66.8,55.9,29.78,NW,304,0.0,4.0,68,0.00,,---,0.00,0.00,VWS V14.01,2013-07-23 06:16:00,
2013-07-23 01:21:00,66.5,56.0,29.78,NNW,330,3.0,4.0,69,0.00,,---,0.00,0.00,VWS V14.01,2013-07-23 06:21:00,
2013-07-23 01:26:00,66.4,56.3,29.78,NNW,330,0.0,3.0,70,0.00,,---,0.00,0.00,VWS V14.01,2013-07-23 06:26:00,
2013-07-23 01:31:00,66.3,56.2,29.78,NNW,330,2.0,2.0,70,0.00,,---,0.00,0.00,VWS V14.01,2013-07-23 06:31:00,
2013-07-23 01:36:00,66.1,56.4,29.77,NW,315,1.0,6.0,71,0.00,,---,0.00,0.00,VWS V14.01,2013-07-23 06:36:00,
2013-07-23 01:41:00,66.0,56.7,29.78,NNW,329,0.0,3.0,72,0.00,,---,0.00,0.00,VWS V14.01,2013-07-23 06:41:00,
2013-07-23 01:46:00,65.8,56.5,29.78,NW,315,3.0,4.0,72,0.00,,---,0.00,0.00,VWS V14.01,2013-07-23 06:46:00,
2013-07-23 01:51:00,65.7,56.4,29.78,NW,315,0.0,3.0,72,0.00,,---,0.00,0.00,VWS V14.01,2013-07-23 06:51:00,
2013-07-23 01:56:00,65.5,56.6,29.77,NW,316,0.0,3.0,73,0.00,,---,0.00,0.00,VWS V14.01,2013-07-23 06:56:00,
2013-07-23 02:01:00,65.3,56.4,29.78,NW,315,0.0,0.0,73,0.00,,---,0.00,0.00,VWS V14.01,2013-07-23 07:01:00,
2013-07-23 02:06:00,64.9,56.4,29.77,WNW,298,0.0,4.0,74,0.00,,---,0.00,0.00,VWS V14.01,2013-07-23 07:06:00,
2013-07-23 02:11:00,64.7,56.6,29.78,WNW,298,1.0,3.0,75,0.00,,---,0.00,0.00,VWS V14.01,2013-07-23 07:11:00,
2013-07-23 02:16:00,64.6,56.5,29.78,WNW,290,0.0,4.0,75,0.00,,---,0.00,0.00,VWS V14.01,2013-07-23 07:16:00,
2013-07-23 02:21:00,64.6,56.9,29.78,WNW,292,0.0,4.0,76,0.00,,---,0.00,0.00,VWS V14.01,2013-07-23 07:21:00,
2013-07-23 02:26:00,64.5,56.8,29.78,NW,311,0.0,4.0,76,0.00,,---,0.00,0.00,VWS V14.01,2013-07-23 07:26:00,
2013-07-23 02:31:00,64.4,56.7,29.78,NW,311,0.0,2.0,76,0.00,,---,0.00,0.00,VWS V14.01,2013-07-23 07:31:00,
2013-07-23 02:36:00,64.3,56.6,29.79,NW,311,0.0,2.0,76,0.00,,---,0.00,0.00,VWS V14.01,2013-07-23 07:36:00,
2013-07-23 02:41:00,64.2,56.5,29.79,NW,313,0.0,3.0,76,0.00,,---,0.00,0.00,VWS V14.01,2013-07-23 07:41:00,
2013-07-23 02:46:00,64.1,56.4,29.79,NNW,333,2.0,4.0,76,0.00,,---,0.00,0.00,VWS V14.01,2013-07-23 07:46:00,
2013-07-23 02:56:00,64.0,56.3,29.80,NNW,339,0.0,4.0,76,0.00,,---,0.00,0.00,VWS V14.01,2013-07-23 07:56:00,
2013-07-23 03:01:00,64.0,56.7,29.79,NNW,329,0.0,5.0,77,0.00,,---,0.00,0.00,VWS V14.01,2013-07-23 08:01:00,
2013-07-23 03:06:00,63.8,56.5,29.79,NW,307,3.0,4.0,77,0.00,,---,0.00,0.00,VWS V14.01,2013-07-23 08:06:00,
2013-07-23 03:11:00,63.7,56.4,29.79,NNW,329,3.0,5.0,77,0.00,,---,0.00,0.00,VWS V14.01,2013-07-23 08:11:00,
2013-07-23 03:16:00,63.5,56.2,29.79,NNW,340,0.0,5.0,77,0.00,,---,0.00,0.00,VWS V14.01,2013-07-23 08:16:00,
2013-07-23 03:21:00,63.4,56.1,29.79,NNW,337,0.0,4.0,77,0.00,,---,0.00,0.00,VWS V14.01,2013-07-23 08:21:00,
2013-07-23 03:26:00,63.2,56.2,29.79,WNW,290,0.0,3.0,78,0.00,,---,0.00,0.00,VWS V14.01,2013-07-23 08:26:00,
2013-07-23 03:31:00,63.0,56.0,29.80,WNW,299,3.0,4.0,78,0.00,,---,0.00,0.00,VWS V14.01,2013-07-23 08:31:00,
2013-07-23 03:36:00,62.8,55.8,29.80,WNW,299,1.0,3.0,78,0.00,,---,0.00,0.00,VWS V14.01,2013-07-23 08:36:00,
2013-07-23 03:41:00,62.7,56.1,29.80,NW,304,4.0,4.0,79,0.00,,---,0.00,0.00,VWS V14.01,2013-07-23 08:41:00,
2013-07-23 03:46:00,62.5,55.9,29.81,WNW,289,2.0,5.0,79,0.00,,---,0.00,0.00,VWS V14.01,2013-07-23 08:46:00,
2013-07-23 03:51:00,62.5,55.9,29.80,NW,319,0.0,4.0,79,0.00,,---,0.00,0.00,VWS V14.01,2013-07-23 08:51:00,
2013-07-23 03:56:00,62.3,55.7,29.80,NW,319,2.0,5.0,79,0.00,,---,0.00,0.00,VWS V14.01,2013-07-23 08:56:00,
2013-07-23 04:01:00,62.2,55.6,29.80,WNW,300,3.0,5.0,79,0.00,,---,0.00,0.00,VWS V14.01,2013-07-23 09:01:00,
2013-07-23 04:11:00,62.1,55.5,29.80,NNW,334,5.0,7.0,79,0.00,,---,0.00,0.00,VWS V14.01,2013-07-23 09:11:00,
2013-07-23 04:16:00,62.1,55.5,29.81,NW,315,5.0,6.0,79,0.00,,---,0.00,0.00,VWS V14.01,2013-07-23 09:16:00,
2013-07-23 04:21:00,61.9,55.3,29.81,NW,306,2.0,6.0,79,0.00,,---,0.00,0.00,VWS V14.01,2013-07-23 09:21:00,
2013-07-23 04:26:00,61.8,55.6,29.81,West,271,2.0,9.0,80,0.00,,---,0.00,0.00,VWS V14.01,2013-07-23 09:26:00,
2013-07-23 04:31:00,61.5,55.3,29.82,WNW,299,3.0,3.0,80,0.00,,---,0.00,0.00,VWS V14.01,2013-07-23 09:31:00,
2013-07-23 04:36:00,61.3,55.4,29.82,WNW,296,0.0,4.0,81,0.00,,---,0.00,0.00,VWS V14.01,2013-07-23 09:36:00,
2013-07-23 04:41:00,61.0,55.1,29.82,WNW,299,4.0,5.0,81,0.00,,---,0.00,0.00,VWS V14.01,2013-07-23 09:41:00,
2013-07-23 04:46:00,60.9,55.0,29.82,NW,306,4.0,5.0,81,0.00,,---,0.00,0.00,VWS V14.01,2013-07-23 09:46:00,
2013-07-23 04:51:00,60.8,55.3,29.82,North,360,2.0,4.0,82,0.00,,---,0.00,0.00,VWS V14.01,2013-07-23 09:51:00,
2013-07-23 04:56:00,60.8,55.3,29.82,NW,317,0.0,6.0,82,0.00,,---,0.00,0.00,VWS V14.01,2013-07-23 09:56:00,
2013-07-23 05:01:00,60.7,55.2,29.82,NNW,344,2.0,5.0,82,0.00,,---,0.00,0.00,VWS V14.01,2013-07-23 10:01:00,
2013-07-23 05:06:00,60.7,55.2,29.83,NW,317,0.0,4.0,82,0.00,,---,0.00,0.00,VWS V14.01,2013-07-23 10:06:00,
2013-07-23 05:11:00,60.6,55.4,29.83,NW,312,4.0,6.0,83,0.00,,---,0.00,0.00,VWS V14.01,2013-07-23 10:11:00,
2013-07-23 05:16:00,60.5,55.3,29.83,NNW,336,0.0,5.0,83,0.00,,---,0.00,0.00,VWS V14.01,2013-07-23 10:16:00,
2013-07-23 05:21:00,60.3,55.1,29.83,North,360,2.0,5.0,83,0.00,,---,0.00,0.00,VWS V14.01,2013-07-23 10:21:00,
2013-07-23 05:26:00,60.2,55.0,29.84,WNW,299,1.0,4.0,83,0.00,,---,0.00,0.00,VWS V14.01,2013-07-23 10:26:00,
2013-07-23 05:31:00,60.1,55.3,29.84,NW,311,2.0,5.0,84,0.00,,---,0.00,0.00,VWS V14.01,2013-07-23 10:31:00,
2013-07-23 05:36:00,59.9,55.1,29.84,NW,317,0.0,3.0,84,0.00,,---,0.00,0.00,VWS V14.01,2013-07-23 10:36:00,
2013-07-23 05:41:00,59.7,54.9,29.84,NNW,342,0.0,4.0,84,0.00,,---,0.00,0.00,VWS V14.01,2013-07-23 10:41:00,
2013-07-23 05:46:00,59.6,55.1,29.84,NNW,342,0.0,3.0,85,0.00,,---,0.00,5.00,VWS V14.01,2013-07-23 10:46:00,
2013-07-23 05:51:00,59.4,54.9,29.84,NNW,342,0.0,0.0,85,0.00,,---,0.00,7.00,VWS V14.01,2013-07-23 10:51:00,
2013-07-23 05:56:00,59.1,54.6,29.84,NW,315,2.0,3.0,85,0.00,,---,0.00,9.00,VWS V14.01,2013-07-23 10:56:00,
2013-07-23 06:01:00,59.0,54.5,29.85,NW,314,2.0,4.0,85,0.00,,---,0.00,11.00,VWS V14.01,2013-07-23 11:01:00,
2013-07-23 06:06:00,59.0,54.8,29.85,NW,319,4.0,4.0,86,0.00,,---,0.00,12.00,VWS V14.01,2013-07-23 11:06:00,
2013-07-23 06:11:00,59.0,54.8,29.85,WNW,300,0.0,4.0,86,0.00,,---,0.00,14.00,VWS V14.01,2013-07-23 11:11:00,
2013-07-23 06:16:00,59.0,54.8,29.85,NNW,327,1.0,3.0,86,0.00,,---,0.00,16.00,VWS V14.01,2013-07-23 11:16:00,
2013-07-23 06:21:00,59.0,54.8,29.85,North,360,0.0,5.0,86,0.00,,---,0.00,18.00,VWS V14.01,2013-07-23 11:21:00,
2013-07-23 06:26:00,59.0,54.8,29.85,NW,305,2.0,4.0,86,0.00,,---,0.00,19.00,VWS V14.01,2013-07-23 11:26:00,
2013-07-23 06:31:00,59.0,54.8,29.85,WNW,298,1.0,3.0,86,0.00,,---,0.00,39.00,VWS V14.01,2013-07-23 11:31:00,
2013-07-23 06:36:00,59.0,54.8,29.85,NW,322,0.0,3.0,86,0.00,,---,0.00,90.00,VWS V14.01,2013-07-23 11:36:00,
2013-07-23 06:41:00,59.0,54.8,29.86,NW,315,2.0,4.0,86,0.00,,---,0.00,102.00,VWS V14.01,2013-07-23 11:41:00,
2013-07-23 06:46:00,59.4,55.2,29.86,NW,326,4.0,6.0,86,0.00,,---,0.00,113.00,VWS V14.01,2013-07-23 11:46:00,
2013-07-23 06:51:00,59.8,55.3,29.86,NNW,327,1.0,4.0,85,0.00,,---,0.00,125.00,VWS V14.01,2013-07-23 11:51:00,
2013-07-23 06:56:00,60.2,55.3,29.86,NW,313,0.0,4.0,84,0.00,,---,0.00,139.00,VWS V14.01,2013-07-23 11:56:00,
2013-07-23 07:01:00,60.6,55.8,29.86,NE,36,3.0,3.0,84,0.00,,---,0.00,153.00,VWS V14.01,2013-07-23 12:01:00,
2013-07-23 07:06:00,61.0,55.5,29.86,NW,323,0.0,5.0,82,0.00,,---,0.00,165.00,VWS V14.01,2013-07-23 12:06:00,
2013-07-23 07:11:00,61.3,55.8,29.87,NNE,16,0.0,4.0,82,0.00,,---,0.00,181.00,VWS V14.01,2013-07-23 12:11:00,
2013-07-23 07:16:00,61.7,55.8,29.87,NW,320,2.0,4.0,81,0.00,,---,0.00,195.00,VWS V14.01,2013-07-23 12:16:00,
2013-07-23 07:21:00,61.9,55.3,29.88,NNW,331,0.0,9.0,79,0.00,,---,0.00,209.00,VWS V14.01,2013-07-23 12:21:00,
2013-07-23 07:26:00,62.2,55.6,29.88,North,355,0.0,6.0,79,0.00,,---,0.00,225.00,VWS V14.01,2013-07-23 12:26:00,
2013-07-23 07:31:00,62.5,55.6,29.89,NNW,336,0.0,7.0,78,0.00,,---,0.00,232.00,VWS V14.01,2013-07-23 12:31:00,
2013-07-23 07:36:00,62.8,55.5,29.89,NW,310,2.0,5.0,77,0.00,,---,0.00,251.00,VWS V14.01,2013-07-23 12:36:00,
2013-07-23 07:41:00,62.9,55.2,29.89,NNE,17,0.0,5.0,76,0.00,,---,0.00,272.00,VWS V14.01,2013-07-23 12:41:00,
2013-07-23 07:46:00,63.1,55.4,29.89,NNW,331,3.0,5.0,76,0.00,,---,0.00,258.00,VWS V14.01,2013-07-23 12:46:00,
2013-07-23 07:51:00,63.1,55.1,29.90,North,349,3.0,6.0,75,0.00,,---,0.00,269.00,VWS V14.01,2013-07-23 12:51:00,
2013-07-23 07:56:00,63.1,55.4,29.90,NW,321,0.0,5.0,76,0.00,,---,0.00,311.00,VWS V14.01,2013-07-23 12:56:00,
2013-07-23 08:01:00,63.5,55.4,29.90,North,355,6.0,6.0,75,0.00,,---,0.00,327.00,VWS V14.01,2013-07-23 13:01:00,
2013-07-23 08:06:00,63.6,55.2,29.90,WNW,290,3.0,6.0,74,0.00,,---,0.00,341.00,VWS V14.01,2013-07-23 13:06:00,
2013-07-23 08:11:00,63.6,55.2,29.90,NNE,23,2.0,8.0,74,0.00,,---,0.00,359.00,VWS V14.01,2013-07-23 13:11:00,
2013-07-23 08:16:00,64.0,55.6,29.90,NNW,340,3.0,5.0,74,0.00,,---,0.00,373.00,VWS V14.01,2013-07-23 13:16:00,
2013-07-23 08:21:00,64.3,55.8,29.90,NE,38,5.0,6.0,74,0.00,,---,0.00,390.00,VWS V14.01,2013-07-23 13:21:00,
2013-07-23 08:26:00,64.3,55.1,29.90,North,355,2.0,5.0,72,0.00,,---,0.00,401.00,VWS V14.01,2013-07-23 13:26:00,
2013-07-23 08:31:00,64.5,55.3,29.90,North,350,0.0,5.0,72,0.00,,---,0.00,418.00,VWS V14.01,2013-07-23 13:31:00,
2013-07-23 08:36:00,64.6,54.6,29.91,North,360,7.0,11.0,70,0.00,,---,0.00,434.00,VWS V14.01,2013-07-23 13:36:00,
2013-07-23 08:41:00,64.6,55.0,29.91,NNW,339,0.0,9.0,71,0.00,,---,0.00,448.00,VWS V14.01,2013-07-23 13:41:00,
2013-07-23 08:46:00,65.2,55.2,29.91,NNE,13,4.0,5.0,70,0.00,,---,0.00,466.00,VWS V14.01,2013-07-23 13:46:00,
2013-07-23 08:51:00,65.5,54.7,29.91,NNE,15,3.0,6.0,68,0.00,,---,0.00,482.00,VWS V14.01,2013-07-23 13:51:00,
2013-07-23 08:56:00,65.5,54.3,29.90,NNE,22,0.0,11.0,67,0.00,,---,0.00,497.00,VWS V14.01,2013-07-23 13:56:00,
2013-07-23 09:01:00,65.4,53.8,29.90,NE,42,4.0,7.0,66,0.00,,---,0.00,508.00,VWS V14.01,2013-07-23 14:01:00,
2013-07-23 09:06:00,65.4,54.6,29.90,North,355,0.0,7.0,68,0.00,,---,0.00,524.00,VWS V14.01,2013-07-23 14:06:00,
2013-07-23 09:11:00,65.7,54.9,29.90,North,360,4.0,9.0,68,0.00,,---,0.00,538.00,VWS V14.01,2013-07-23 14:11:00,
2013-07-23 09:16:00,66.0,54.7,29.90,North,355,2.0,9.0,67,0.00,,---,0.00,552.00,VWS V14.01,2013-07-23 14:16:00,
2013-07-23 09:21:00,65.9,54.2,29.90,North,360,2.0,7.0,66,0.00,,---,0.00,568.00,VWS V14.01,2013-07-23 14:21:00,
2013-07-23 09:26:00,65.9,53.8,29.90,North,350,6.0,9.0,65,0.00,,---,0.00,584.00,VWS V14.01,2013-07-23 14:26:00,
2013-07-23 09:31:00,65.8,53.7,29.90,NNW,346,4.0,9.0,65,0.00,,---,0.00,596.00,VWS V14.01,2013-07-23 14:31:00,
2013-07-23 09:36:00,66.0,53.9,29.90,NW,318,5.0,9.0,65,0.00,,---,0.00,608.00,VWS V14.01,2013-07-23 14:36:00,
2013-07-23 09:46:00,66.3,53.3,29.90,NE,42,2.0,6.0,63,0.00,,---,0.00,635.00,VWS V14.01,2013-07-23 14:46:00,
2013-07-23 09:51:00,66.0,53.1,29.91,NE,36,4.0,13.0,63,0.00,,---,0.00,649.00,VWS V14.01,2013-07-23 14:51:00,
2013-07-23 09:56:00,66.3,53.8,29.91,NNW,344,6.0,7.0,64,0.00,,---,0.00,659.00,VWS V14.01,2013-07-23 14:56:00,
2013-07-23 10:01:00,66.5,53.5,29.91,West,262,3.0,9.0,63,0.00,,---,0.00,673.00,VWS V14.01,2013-07-23 15:01:00,
2013-07-23 10:06:00,66.5,53.1,29.91,NNW,346,2.0,11.0,62,0.00,,---,0.00,687.00,VWS V14.01,2013-07-23 15:06:00,
2013-07-23 10:11:00,66.7,53.3,29.92,ENE,59,5.0,9.0,62,0.00,,---,0.00,696.00,VWS V14.01,2013-07-23 15:11:00,
2013-07-23 10:16:00,66.8,53.4,29.92,NNW,342,5.0,9.0,62,0.00,,---,0.00,708.00,VWS V14.01,2013-07-23 15:16:00,
2013-07-23 10:21:00,67.4,53.9,29.92,NNW,330,5.0,7.0,62,0.00,,---,0.00,719.00,VWS V14.01,2013-07-23 15:21:00,
2013-07-23 10:26:00,67.6,53.2,29.92,West,275,0.0,8.0,60,0.00,,---,0.00,733.00,VWS V14.01,2013-07-23 15:26:00,
2013-07-23 10:31:00,67.7,53.3,29.92,North,5,5.0,7.0,60,0.00,,---,0.00,744.00,VWS V14.01,2013-07-23 15:31:00,
2013-07-23 10:36:00,67.6,53.7,29.93,ENE,57,5.0,10.0,61,0.00,,---,0.00,751.00,VWS V14.01,2013-07-23 15:36:00,
2013-07-23 10:41:00,67.2,53.8,29.93,NNE,18,3.0,10.0,62,0.00,,---,0.00,763.00,VWS V14.01,2013-07-23 15:41:00,
2013-07-23 10:46:00,67.3,53.0,29.94,NW,315,5.0,6.0,60,0.00,,---,0.00,770.00,VWS V14.01,2013-07-23 15:46:00,
2013-07-23 10:51:00,67.4,53.0,29.94,North,360,5.0,10.0,60,0.00,,---,0.00,780.00,VWS V14.01,2013-07-23 15:51:00,
2013-07-23 10:56:00,67.7,53.3,29.93,WNW,295,0.0,9.0,60,0.00,,---,0.00,788.00,VWS V14.01,2013-07-23 15:56:00,
2013-07-23 11:01:00,68.1,52.8,29.93,WNW,296,4.0,6.0,58,0.00,,---,0.00,800.00,VWS V14.01,2013-07-23 16:01:00,
2013-07-23 11:06:00,68.4,53.5,29.94,NNE,23,5.0,7.0,59,0.00,,---,0.00,810.00,VWS V14.01,2013-07-23 16:06:00,
2013-07-23 11:11:00,68.6,53.7,29.94,North,5,3.0,9.0,59,0.00,,---,0.00,817.00,VWS V14.01,2013-07-23 16:11:00,
2013-07-23 11:16:00,68.7,52.9,29.94,NNW,348,0.0,7.0,57,0.00,,---,0.00,828.00,VWS V14.01,2013-07-23 16:16:00,
2013-07-23 11:21:00,68.9,54.5,29.94,North,360,1.0,4.0,60,0.00,,---,0.00,833.00,VWS V14.01,2013-07-23 16:21:00,
2013-07-23 11:26:00,69.4,53.5,29.94,NNW,341,3.0,5.0,57,0.00,,---,0.00,842.00,VWS V14.01,2013-07-23 16:26:00,
2013-07-23 11:31:00,69.5,53.6,29.94,NNW,332,5.0,10.0,57,0.00,,---,0.00,849.00,VWS V14.01,2013-07-23 16:31:00,
2013-07-23 11:36:00,69.6,53.2,29.94,West,271,7.0,14.0,56,0.00,,---,0.00,858.00,VWS V14.01,2013-07-23 16:36:00,
2013-07-23 11:41:00,69.4,53.5,29.94,NNW,338,5.0,7.0,57,0.00,,---,0.00,861.00,VWS V14.01,2013-07-23 16:41:00,
2013-07-23 11:46:00,69.5,53.1,29.94,North,5,0.0,9.0,56,0.00,,---,0.00,870.00,VWS V14.01,2013-07-23 16:46:00,
2013-07-23 11:51:00,69.9,53.0,29.94,NNE,15,6.0,7.0,55,0.00,,---,0.00,877.00,VWS V14.01,2013-07-23 16:51:00,
2013-07-23 11:56:00,70.1,53.7,29.93,NNE,17,5.0,7.0,56,0.00,,---,0.00,882.00,VWS V14.01,2013-07-23 16:56:00,
2013-07-23 12:01:00,69.7,53.3,29.93,North,351,5.0,9.0,56,0.00,,---,0.00,889.00,VWS V14.01,2013-07-23 17:01:00,
2013-07-23 12:06:00,69.8,53.9,29.93,NW,310,5.0,7.0,57,0.00,,---,0.00,895.00,VWS V14.01,2013-07-23 17:06:00,
2013-07-23 12:11:00,70.4,54.5,29.93,SE,134,7.0,7.0,57,0.00,,---,0.00,900.00,VWS V14.01,2013-07-23 17:11:00,
2013-07-23 12:16:00,70.1,53.7,29.93,NE,42,1.0,9.0,56,0.00,,---,0.00,907.00,VWS V14.01,2013-07-23 17:16:00,
2013-07-23 12:21:00,70.0,53.1,29.93,NNE,21,4.0,9.0,55,0.00,,---,0.00,911.00,VWS V14.01,2013-07-23 17:21:00,
2013-07-23 12:26:00,70.2,53.3,29.92,WNW,303,0.0,11.0,55,0.00,,---,0.00,911.00,VWS V14.01,2013-07-23 17:26:00,
2013-07-23 12:31:00,70.6,53.7,29.93,NW,325,1.0,12.0,55,0.00,,---,0.00,916.00,VWS V14.01,2013-07-23 17:31:00,
2013-07-23 12:36:00,71.0,53.5,29.93,NE,49,4.0,7.0,54,0.00,,---,0.00,919.00,VWS V14.01,2013-07-23 17:36:00,
2013-07-23 12:41:00,71.2,53.7,29.93,NNE,33,2.0,7.0,54,0.00,,---,0.00,921.00,VWS V14.01,2013-07-23 17:41:00,
2013-07-23 12:46:00,71.0,53.0,29.93,NW,311,0.0,9.0,53,0.00,,---,0.00,925.00,VWS V14.01,2013-07-23 17:46:00,
2013-07-23 12:56:00,71.3,54.3,29.93,WNW,284,0.0,9.0,55,0.00,,---,0.00,926.00,VWS V14.01,2013-07-23 17:56:00,
2013-07-23 13:06:00,72.1,53.5,29.93,North,11,2.0,10.0,52,0.00,,---,0.00,932.00,VWS V14.01,2013-07-23 18:06:00,
2013-07-23 13:11:00,71.9,53.3,29.93,North,360,3.0,6.0,52,0.00,,---,0.00,932.00,VWS V14.01,2013-07-23 18:11:00,
2013-07-23 13:16:00,71.8,54.8,29.93,East,81,4.0,7.0,55,0.00,,---,0.00,932.00,VWS V14.01,2013-07-23 18:16:00,
2013-07-23 13:21:00,72.2,55.2,29.92,ENE,63,0.0,4.0,55,0.00,,---,0.00,932.00,VWS V14.01,2013-07-23 18:21:00,
2013-07-23 13:26:00,72.3,55.2,29.92,North,10,1.0,7.0,55,0.00,,---,0.00,930.00,VWS V14.01,2013-07-23 18:26:00,
2013-07-23 13:36:00,72.6,54.5,29.92,NW,319,5.0,7.0,53,0.00,,---,0.00,925.00,VWS V14.01,2013-07-23 18:36:00,
2013-07-23 13:41:00,72.7,55.1,29.92,North,355,3.0,5.0,54,0.00,,---,0.00,925.00,VWS V14.01,2013-07-23 18:41:00,
2013-07-23 13:51:00,72.0,54.0,29.93,East,100,0.0,6.0,53,0.00,,---,0.00,921.00,VWS V14.01,2013-07-23 18:51:00,
2013-07-23 13:56:00,72.1,54.6,29.92,East,97,4.0,6.0,54,0.00,,---,0.00,919.00,VWS V14.01,2013-07-23 18:56:00,
2013-07-23 14:01:00,72.6,55.0,29.92,NNW,346,5.0,5.0,54,0.00,,---,0.00,916.00,VWS V14.01,2013-07-23 19:01:00,
2013-07-23 14:06:00,73.3,54.6,29.92,WNW,287,0.0,5.0,52,0.00,,---,0.00,911.00,VWS V14.01,2013-07-23 19:06:00,
2013-07-23 14:11:00,74.0,54.2,29.92,NNW,344,4.0,7.0,50,0.00,,---,0.00,905.00,VWS V14.01,2013-07-23 19:11:00,
2013-07-23 14:16:00,73.4,54.2,29.92,NNW,344,0.0,6.0,51,0.00,,---,0.00,905.00,VWS V14.01,2013-07-23 19:16:00,
2013-07-23 14:21:00,73.3,54.1,29.92,WNW,283,4.0,6.0,51,0.00,,---,0.00,898.00,VWS V14.01,2013-07-23 19:21:00,
2013-07-23 14:31:00,72.9,55.3,29.92,NNE,15,0.0,8.0,54,0.00,,---,0.00,888.00,VWS V14.01,2013-07-23 19:31:00,
2013-07-23 14:36:00,73.7,54.5,29.92,NNE,27,0.0,6.0,51,0.00,,---,0.00,882.00,VWS V14.01,2013-07-23 19:36:00,
2013-07-23 14:41:00,74.0,54.2,29.92,SE,128,0.0,5.0,50,0.00,,---,0.00,877.00,VWS V14.01,2013-07-23 19:41:00,
2013-07-23 14:46:00,74.4,55.1,29.92,NE,44,3.0,6.0,51,0.00,,---,0.00,868.00,VWS V14.01,2013-07-23 19:46:00,
2013-07-23 14:51:00,74.4,55.1,29.92,North,360,0.0,7.0,51,0.00,,---,0.00,863.00,VWS V14.01,2013-07-23 19:51:00,
2013-07-23 15:01:00,74.2,54.9,29.92,NNW,337,3.0,7.0,51,0.00,,---,0.00,849.00,VWS V14.01,2013-07-23 20:01:00,
2013-07-23 15:06:00,74.1,54.3,29.92,NNW,341,0.0,6.0,50,0.00,,---,0.00,846.00,VWS V14.01,2013-07-23 20:06:00,
2013-07-23 15:16:00,74.8,54.9,29.92,NNW,329,0.0,3.0,50,0.00,,---,0.00,826.00,VWS V14.01,2013-07-23 20:16:00,
2013-07-23 15:21:00,75.5,55.0,29.92,NE,41,1.0,4.0,49,0.00,,---,0.00,819.00,VWS V14.01,2013-07-23 20:21:00,
2013-07-23 15:26:00,75.2,54.8,29.92,ESE,114,4.0,5.0,49,0.00,,---,0.00,814.00,VWS V14.01,2013-07-23 20:26:00,
2013-07-23 15:31:00,74.9,55.6,29.92,North,350,1.0,7.0,51,0.00,,---,0.00,798.00,VWS V14.01,2013-07-23 20:31:00,
2013-07-23 15:41:00,75.2,54.8,29.92,NE,35,0.0,5.0,49,0.00,,---,0.00,780.00,VWS V14.01,2013-07-23 20:41:00,
2013-07-23 15:51:00,75.4,55.5,29.91,North,355,0.0,4.0,50,0.00,,---,0.00,763.00,VWS V14.01,2013-07-23 20:51:00,
2013-07-23 15:56:00,75.7,55.8,29.91,NNE,17,0.0,5.0,50,0.00,,---,0.00,749.00,VWS V14.01,2013-07-23 20:56:00,
2013-07-23 16:01:00,74.9,55.0,29.92,NNE,26,1.0,6.0,50,0.00,,---,0.00,738.00,VWS V14.01,2013-07-23 21:01:00,
2013-07-23 16:06:00,74.7,54.3,29.92,NNE,30,0.0,4.0,49,0.00,,---,0.00,729.00,VWS V14.01,2013-07-23 21:06:00,
2013-07-23 16:16:00,75.3,55.4,29.91,NNE,22,1.0,4.0,50,0.00,,---,0.00,705.00,VWS V14.01,2013-07-23 21:16:00,
2013-07-23 16:31:00,75.8,55.3,29.91,NNW,328,1.0,5.0,49,0.00,,---,0.00,668.00,VWS V14.01,2013-07-23 21:31:00,
2013-07-23 16:41:00,75.7,55.8,29.91,ENE,57,6.0,6.0,50,0.00,,---,0.00,643.00,VWS V14.01,2013-07-23 21:41:00,
2013-07-23 16:51:00,75.7,54.6,29.91,NW,320,0.0,5.0,48,0.00,,---,0.00,619.00,VWS V14.01,2013-07-23 21:51:00,
2013-07-23 17:01:00,75.8,55.9,29.91,NNW,328,0.0,6.0,50,0.00,,---,0.00,592.00,VWS V14.01,2013-07-23 22:01:00,
2013-07-23 17:06:00,75.8,55.3,29.91,North,5,3.0,5.0,49,0.00,,---,0.00,578.00,VWS V14.01,2013-07-23 22:06:00,
2013-07-23 17:16:00,75.8,55.9,29.91,NNE,28,1.0,5.0,50,0.00,,---,0.00,548.00,VWS V14.01,2013-07-23 22:16:00,
2013-07-23 17:21:00,75.5,55.6,29.91,North,360,2.0,6.0,50,0.00,,---,0.00,534.00,VWS V14.01,2013-07-23 22:21:00,
2013-07-23 17:31:00,76.4,55.8,29.91,NNE,17,1.0,5.0,49,0.00,,---,0.00,513.00,VWS V14.01,2013-07-23 22:31:00,
2013-07-23 17:36:00,76.7,56.1,29.90,NNE,25,1.0,6.0,49,0.00,,---,0.00,499.00,VWS V14.01,2013-07-23 22:36:00,
2013-07-23 17:41:00,76.0,54.9,29.91,NE,36,6.0,6.0,48,0.00,,---,0.00,487.00,VWS V14.01,2013-07-23 22:41:00,
2013-07-23 17:46:00,75.1,55.2,29.91,NNE,13,4.0,11.0,50,0.00,,---,0.00,471.00,VWS V14.01,2013-07-23 22:46:00,
2013-07-23 17:51:00,75.0,55.7,29.91,NNE,22,0.0,5.0,51,0.00,,---,0.00,454.00,VWS V14.01,2013-07-23 22:51:00,
2013-07-23 17:56:00,75.4,54.9,29.91,NNW,327,0.0,6.0,49,0.00,,---,0.00,424.00,VWS V14.01,2013-07-23 22:56:00,
2013-07-23 18:01:00,75.5,55.0,29.91,NNW,348,3.0,4.0,49,0.00,,---,0.00,406.00,VWS V14.01,2013-07-23 23:01:00,
2013-07-23 18:06:00,75.1,55.2,29.91,West,279,0.0,7.0,50,0.00,,---,0.00,388.00,VWS V14.01,2013-07-23 23:06:00,
2013-07-23 18:11:00,75.3,55.4,29.91,North,355,0.0,5.0,50,0.00,,---,0.00,385.00,VWS V14.01,2013-07-23 23:11:00,
2013-07-23 18:16:00,75.3,54.8,29.91,NW,321,4.0,5.0,49,0.00,,---,0.00,364.00,VWS V14.01,2013-07-23 23:16:00,
2013-07-23 18:26:00,74.9,55.6,29.91,NNW,337,2.0,2.0,51,0.00,,---,0.00,316.00,VWS V14.01,2013-07-23 23:26:00,
2013-07-23 18:31:00,75.1,55.2,29.91,NNW,344,0.0,4.0,50,0.00,,---,0.00,316.00,VWS V14.01,2013-07-23 23:31:00,
2013-07-23 18:36:00,75.4,55.5,29.91,NE,54,1.0,4.0,50,0.00,,---,0.00,299.00,VWS V14.01,2013-07-23 23:36:00,
2013-07-23 18:41:00,75.0,55.1,29.91,NE,55,0.0,5.0,50,0.00,,---,0.00,292.00,VWS V14.01,2013-07-23 23:41:00,
2013-07-23 18:46:00,74.4,55.1,29.91,NNE,15,0.0,7.0,51,0.00,,---,0.00,255.00,VWS V14.01,2013-07-23 23:46:00,
2013-07-23 18:51:00,74.3,55.6,29.92,NE,42,4.0,4.0,52,0.00,,---,0.00,230.00,VWS V14.01,2013-07-23 23:51:00,
2013-07-23 18:56:00,74.1,54.8,29.92,NE,36,0.0,5.0,51,0.00,,---,0.00,269.00,VWS V14.01,2013-07-23 23:56:00,
2013-07-23 19:01:00,73.9,55.7,29.92,NE,36,0.0,0.0,53,0.00,,---,0.00,239.00,VWS V14.01,2013-07-24 00:01:00,
2013-07-23 19:06:00,74.1,55.9,29.92,North,360,0.0,4.0,53,0.00,,---,0.00,221.00,VWS V14.01,2013-07-24 00:06:00,
2013-07-23 19:16:00,74.2,54.4,29.92,North,360,0.0,2.0,50,0.00,,---,0.00,174.00,VWS V14.01,2013-07-24 00:16:00,
2013-07-23 19:21:00,73.8,54.6,29.92,North,5,1.0,3.0,51,0.00,,---,0.00,172.00,VWS V14.01,2013-07-24 00:21:00,
2013-07-23 19:26:00,73.6,54.9,29.92,North,360,2.0,2.0,52,0.00,,---,0.00,151.00,VWS V14.01,2013-07-24 00:26:00,
2013-07-23 19:31:00,73.2,54.5,29.92,NNW,341,0.0,2.0,52,0.00,,---,0.00,156.00,VWS V14.01,2013-07-24 00:31:00,
2013-07-23 19:36:00,73.1,54.5,29.92,NNW,342,0.0,1.0,52,0.00,,---,0.00,123.00,VWS V14.01,2013-07-24 00:36:00,
2013-07-23 19:41:00,72.8,55.2,29.92,NNW,342,0.0,0.0,54,0.00,,---,0.00,137.00,VWS V14.01,2013-07-24 00:41:00,
2013-07-23 19:46:00,72.7,54.6,29.92,NNW,345,0.0,3.0,53,0.00,,---,0.00,77.00,VWS V14.01,2013-07-24 00:46:00,
2013-07-23 19:51:00,72.4,54.3,29.92,NNE,29,1.0,4.0,53,0.00,,---,0.00,109.00,VWS V14.01,2013-07-24 00:51:00,
2013-07-23 19:56:00,72.2,54.1,29.92,NNE,29,0.0,1.0,53,0.00,,---,0.00,35.00,VWS V14.01,2013-07-24 00:56:00,
2013-07-23 20:01:00,71.8,54.3,29.92,NNE,29,0.0,1.0,54,0.00,,---,0.00,30.00,VWS V14.01,2013-07-24 01:01:00,
2013-07-23 20:06:00,71.3,53.8,29.92,NNE,29,0.0,0.0,54,0.00,,---,0.00,28.00,VWS V14.01,2013-07-24 01:06:00,
2013-07-23 20:11:00,71.0,54.0,29.92,NNE,29,0.0,1.0,55,0.00,,---,0.00,28.00,VWS V14.01,2013-07-24 01:11:00,
2013-07-23 20:21:00,70.4,54.5,29.92,NNE,29,0.0,0.0,57,0.00,,---,0.00,44.00,VWS V14.01,2013-07-24 01:21:00,
2013-07-23 20:26:00,70.3,53.9,29.92,NNE,29,0.0,0.0,56,0.00,,---,0.00,30.00,VWS V14.01,2013-07-24 01:26:00,
2013-07-23 20:36:00,70.0,54.6,29.92,NNE,29,0.0,0.0,58,0.00,,---,0.00,19.00,VWS V14.01,2013-07-24 01:36:00,
2013-07-23 20:41:00,69.8,54.4,29.92,NNE,29,0.0,0.0,58,0.00,,---,0.00,16.00,VWS V14.01,2013-07-24 01:41:00,
2013-07-23 20:46:00,69.5,54.6,29.92,NNE,29,0.0,0.0,59,0.00,,---,0.00,9.00,VWS V14.01,2013-07-24 01:46:00,
2013-07-23 20:51:00,69.4,54.5,29.92,NNE,29,0.0,0.0,59,0.00,,---,0.00,7.00,VWS V14.01,2013-07-24 01:51:00,
2013-07-23 20:56:00,69.1,54.7,29.92,NNE,29,0.0,0.0,60,0.00,,---,0.00,0.00,VWS V14.01,2013-07-24 01:56:00,
2013-07-23 21:01:00,68.9,54.9,29.92,NNE,29,0.0,0.0,61,0.00,,---,0.00,0.00,VWS V14.01,2013-07-24 02:01:00,
2013-07-23 21:06:00,68.6,55.1,29.92,NNE,29,0.0,0.0,62,0.00,,---,0.00,0.00,VWS V14.01,2013-07-24 02:06:00,
2013-07-23 21:11:00,68.2,55.1,29.92,NNE,29,0.0,0.0,63,0.00,,---,0.00,0.00,VWS V14.01,2013-07-24 02:11:00,
2013-07-23 21:31:00,66.5,54.8,29.93,NNE,29,0.0,0.0,66,0.00,,---,0.00,0.00,VWS V14.01,2013-07-24 02:31:00,
2013-07-23 21:36:00,66.0,54.7,29.93,NNE,29,0.0,0.0,67,0.00,,---,0.00,0.00,VWS V14.01,2013-07-24 02:36:00,
2013-07-23 21:41:00,65.7,54.9,29.93,NNE,29,0.0,0.0,68,0.00,,---,0.00,0.00,VWS V14.01,2013-07-24 02:41:00,
2013-07-23 21:46:00,65.4,54.6,29.93,NNE,29,0.0,0.0,68,0.00,,---,0.00,0.00,VWS V14.01,2013-07-24 02:46:00,
2013-07-23 21:56:00,65.0,54.6,29.94,NNE,29,0.0,0.0,69,0.00,,---,0.00,0.00,VWS V14.01,2013-07-24 02:56:00,
2013-07-23 22:01:00,64.8,54.8,29.94,NNE,29,0.0,0.0,70,0.00,,---,0.00,0.00,VWS V14.01,2013-07-24 03:01:00,
2013-07-23 22:06:00,64.5,54.9,29.94,NNE,29,0.0,0.0,71,0.00,,---,0.00,0.00,VWS V14.01,2013-07-24 03:06:00,
2013-07-23 22:11:00,64.2,55.0,29.94,NNE,29,0.0,0.0,72,0.00,,---,0.00,0.00,VWS V14.01,2013-07-24 03:11:00,
2013-07-23 22:16:00,64.0,54.8,29.94,NNE,29,0.0,0.0,72,0.00,,---,0.00,0.00,VWS V14.01,2013-07-24 03:16:00,
2013-07-23 22:21:00,63.9,54.7,29.94,NNE,29,0.0,0.0,72,0.00,,---,0.00,0.00,VWS V14.01,2013-07-24 03:21:00,
2013-07-23 22:26:00,64.0,54.4,29.94,NNE,29,0.0,0.0,71,0.00,,---,0.00,0.00,VWS V14.01,2013-07-24 03:26:00,
2013-07-23 22:36:00,64.2,54.2,29.94,NNE,29,0.0,2.0,70,0.00,,---,0.00,0.00,VWS V14.01,2013-07-24 03:36:00,
2013-07-23 22:46:00,64.2,53.8,29.94,NNE,29,0.0,0.0,69,0.00,,---,0.00,0.00,VWS V14.01,2013-07-24 03:46:00,
2013-07-23 22:51:00,64.1,54.1,29.95,NNE,29,0.0,0.0,70,0.00,,---,0.00,0.00,VWS V14.01,2013-07-24 03:51:00,
2013-07-23 22:56:00,63.9,53.9,29.94,NNE,29,0.0,0.0,70,0.00,,---,0.00,0.00,VWS V14.01,2013-07-24 03:56:00,
2013-07-23 23:01:00,63.6,54.0,29.94,NNE,29,0.0,0.0,71,0.00,,---,0.00,0.00,VWS V14.01,2013-07-24 04:01:00,
2013-07-23 23:06:00,63.3,54.1,29.95,NNE,29,0.0,0.0,72,0.00,,---,0.00,0.00,VWS V14.01,2013-07-24 04:06:00,
2013-07-23 23:11:00,63.0,54.2,29.95,NNE,29,0.0,0.0,73,0.00,,---,0.00,0.00,VWS V14.01,2013-07-24 04:11:00,
2013-07-23 23:16:00,62.7,54.3,29.95,NNE,29,0.0,0.0,74,0.00,,---,0.00,0.00,VWS V14.01,2013-07-24 04:16:00,
2013-07-23 23:21:00,62.4,54.0,29.95,NNE,29,0.0,0.0,74,0.00,,---,0.00,0.00,VWS V14.01,2013-07-24 04:21:00,
2013-07-23 23:26:00,62.1,54.1,29.95,NNE,29,0.0,0.0,75,0.00,,---,0.00,0.00,VWS V14.01,2013-07-24 04:26:00,
2013-07-23 23:31:00,61.8,53.8,29.95,NNE,29,0.0,0.0,75,0.00,,---,0.00,0.00,VWS V14.01,2013-07-24 04:31:00,
2013-07-23 23:36:00,61.6,54.0,29.95,NNE,29,0.0,0.0,76,0.00,,---,0.00,0.00,VWS V14.01,2013-07-24 04:36:00,
2013-07-23 23:46:00,61.2,53.9,29.95,NNE,29,0.0,0.0,77,0.00,,---,0.00,0.00,VWS V14.01,2013-07-24 04:46:00,
2013-07-23 23:51:00,61.0,53.8,29.95,NNE,29,0.0,0.0,77,0.00,,---,0.00,0.00,VWS V14.01,2013-07-24 04:51:00,
2013-07-23 23:56:00,60.8,53.5,29.96,NNE,29,0.0,0.0,77,0.00,,---,0.00,0.00,VWS V14.01,2013-07-24 04:56:00,